| time (UTC) | temp F | wind direction | speed knots | gust knots | rain 1hr in | rain 24hr in | rain mn in | humidity % | barometer mb |
| 20260507023044 | 73 | 0 | 0.9 | 7.0 | 0.00 | 0.00 | 0.00 | 80 | 1013.6 |
| 20260507022539 | 73 | 126 | 0.9 | 7.0 | 0.00 | 0.00 | 0.00 | 80 | 1013.4 |
| 20260507022039 | 73 | 0 | 1.7 | 7.0 | 0.00 | 0.00 | 0.00 | 79 | 1013.5 |
| 20260507021611 | 73 | 123 | 1.7 | 6.1 | 0.00 | 0.00 | 0.00 | 79 | 1013.5 |
| 20260507021039 | 73 | 173 | 0.9 | 6.1 | 0.00 | 0.00 | 0.00 | 79 | 1013.9 |
| 20260507020539 | 73 | 142 | 0.9 | 4.3 | 0.00 | 0.00 | 0.00 | 79 | 1013.9 |
| 20260507020106 | 73 | 128 | 0.9 | 6.1 | 0.00 | 0.00 | 0.00 | 79 | 1014.3 |
| 20260507015535 | 73 | 184 | 1.7 | 6.1 | 0.00 | 0.00 | 0.00 | 80 | 1014.2 |
| 20260507015038 | 73 | 200 | 1.7 | 7.8 | 0.00 | 0.00 | 0.00 | 80 | 1014.3 |
| 20260507014618 | 73 | 0 | 0.9 | 7.8 | 0.00 | 0.00 | 0.00 | 80 | 1014.2 |
| 20260507014036 | 73 | 174 | 1.7 | 7.8 | 0.00 | 0.00 | 0.00 | 80 | 1014.4 |
| 20260507013539 | 73 | 205 | 0.9 | 4.3 | 0.00 | 0.00 | 0.00 | 80 | 1014.6 |
| 20260507013052 | 73 | 0 | 0.9 | 5.2 | 0.00 | 0.00 | 0.00 | 80 | 1014.4 |
| 20260507012539 | 73 | 164 | 0.9 | 6.1 | 0.00 | 0.00 | 0.00 | 80 | 1014.2 |
| 20260507012039 | 73 | 188 | 0.9 | 6.1 | 0.00 | 0.00 | 0.00 | 80 | 1014.3 |
| 20260507011556 | 73 | 88 | 0.9 | 6.1 | 0.00 | 0.00 | 0.00 | 80 | 1014.5 |
| 20260507011039 | 73 | 0 | 0.9 | 5.2 | 0.00 | 0.00 | 0.00 | 79 | 1014.5 |
| 20260507010539 | 73 | 137 | 0.9 | 5.2 | 0.00 | 0.00 | 0.00 | 79 | 1014.5 |
| 20260507010049 | 73 | 182 | 0.9 | 5.2 | 0.00 | 0.00 | 0.00 | 78 | 1014.6 |
| 20260507005536 | 73 | 211 | 0.9 | 7.0 | 0.00 | 0.00 | 0.00 | 78 | 1014.7 |
| 20260507005035 | 73 | 191 | 0.9 | 7.0 | 0.00 | 0.00 | 0.00 | 78 | 1014.6 |
| 20260507004552 | 73 | 180 | 0.9 | 4.3 | 0.00 | 0.00 | 0.00 | 78 | 1014.7 |
| 20260507004040 | 73 | 185 | 0.0 | 5.2 | 0.00 | 0.00 | 0.00 | 78 | 1014.5 |
| 20260507003540 | 73 | 190 | 0.9 | 5.2 | 0.00 | 0.00 | 0.00 | 78 | 1014.5 |
| 20260507003049 | 73 | 0 | 0.9 | 4.3 | 0.00 | 0.00 | 0.00 | 78 | 1014.4 |
| 20260507002538 | 73 | 123 | 0.0 | 4.3 | 0.00 | 0.00 | 0.00 | 78 | 1014.5 |
| 20260507002039 | 73 | 159 | 1.7 | 5.2 | 0.00 | 0.00 | 0.00 | 78 | 1014.4 |
| 20260507001600 | 73 | 184 | 0.9 | 6.1 | 0.00 | 0.00 | 0.00 | 78 | 1014.4 |
| 20260507001038 | 73 | 155 | 0.9 | 6.1 | 0.00 | 0.00 | 0.00 | 78 | 1014.4 |
| 20260507000538 | 73 | 216 | 1.7 | 6.1 | 0.00 | 0.00 | 0.00 | 77 | 1014.5 |
| 20260507000104 | 74 | 132 | 0.9 | 5.2 | 0.00 | 0.00 | 0.00 | 77 | 1014.4 |
| 20260506235538 | 74 | 142 | 0.9 | 4.3 | 0.00 | 0.00 | 0.00 | 76 | 1014.5 |
| 20260506235038 | 74 | 184 | 0.9 | 4.3 | 0.00 | 0.00 | 0.00 | 76 | 1014.6 |
| 20260506234605 | 74 | 188 | 1.7 | 6.1 | 0.00 | 0.00 | 0.00 | 76 | 1014.5 |
| 20260506234040 | 74 | 148 | 0.9 | 7.8 | 0.00 | 0.00 | 0.00 | 75 | 1014.7 |
| 20260506233540 | 74 | 157 | 0.9 | 7.8 | 0.00 | 0.00 | 0.00 | 75 | 1014.6 |
| 20260506233055 | 75 | 194 | 1.7 | 7.8 | 0.00 | 0.00 | 0.00 | 74 | 1014.4 |
| 20260506232542 | 75 | 203 | 0.9 | 4.3 | 0.00 | 0.00 | 0.00 | 75 | 1014.3 |
| 20260506232039 | 75 | 128 | 0.9 | 6.1 | 0.00 | 0.00 | 0.00 | 74 | 1014.5 |
| 20260506231548 | 75 | 208 | 1.7 | 6.1 | 0.00 | 0.00 | 0.00 | 73 | 1014.4 |
| 20260506231040 | 75 | 232 | 0.0 | 6.1 | 0.00 | 0.00 | 0.00 | 73 | 1014.4 |
| 20260506230538 | 75 | 0 | 0.9 | 7.8 | 0.00 | 0.00 | 0.00 | 72 | 1014.4 |
| 20260506230101 | 76 | 198 | 1.7 | 7.8 | 0.00 | 0.00 | 0.00 | 71 | 1014.5 |
| 20260506225542 | 76 | 170 | 0.9 | 3.5 | 0.00 | 0.00 | 0.00 | 71 | 1014.4 |
| 20260506225041 | 76 | 164 | 0.9 | 3.5 | 0.00 | 0.00 | 0.00 | 71 | 1014.5 |
| 20260506224551 | 76 | 169 | 0.9 | 6.1 | 0.00 | 0.00 | 0.00 | 71 | 1014.4 |
| 20260506224038 | 76 | 184 | 0.9 | 7.0 | 0.00 | 0.00 | 0.00 | 70 | 1014.5 |
| 20260506223540 | 76 | 213 | 0.9 | 7.0 | 0.00 | 0.00 | 0.00 | 69 | 1014.5 |
| 20260506223049 | 77 | 0 | 0.9 | 7.8 | 0.00 | 0.00 | 0.00 | 69 | 1014.3 |
| 20260506222540 | 77 | 171 | 1.7 | 7.8 | 0.00 | 0.00 | 0.00 | 67 | 1014.1 |
| 20260506222038 | 78 | 182 | 1.7 | 5.2 | 0.00 | 0.00 | 0.00 | 67 | 1014.2 |
| 20260506221600 | 78 | 163 | 1.7 | 6.1 | 0.00 | 0.00 | 0.00 | 68 | 1014.3 |
| 20260506221038 | 78 | 217 | 1.7 | 7.0 | 0.00 | 0.00 | 0.00 | 67 | 1014.2 |
| 20260506220540 | 78 | 232 | 2.6 | 7.0 | 0.00 | 0.00 | 0.00 | 67 | 1014.3 |
| 20260506220050 | 79 | 199 | 2.6 | 7.0 | 0.00 | 0.00 | 0.00 | 66 | 1014.2 |
| 20260506215539 | 79 | 71 | 1.7 | 6.1 | 0.00 | 0.00 | 0.00 | 66 | 1014.0 |
| 20260506215041 | 79 | 151 | 1.7 | 6.1 | 0.00 | 0.00 | 0.00 | 67 | 1014.2 |
| 20260506214559 | 80 | 217 | 1.7 | 8.7 | 0.00 | 0.00 | 0.00 | 66 | 1014.4 |
| 20260506214039 | 79 | 213 | 1.7 | 8.7 | 0.00 | 0.00 | 0.00 | 66 | 1014.3 |
| 20260506213541 | 79 | 192 | 2.6 | 9.6 | 0.00 | 0.00 | 0.00 | 65 | 1014.4 |
| 20260506213053 | 80 | 227 | 2.6 | 9.6 | 0.00 | 0.00 | 0.00 | 65 | 1014.5 |
| 20260506212538 | 80 | 217 | 2.6 | 8.7 | 0.00 | 0.00 | 0.00 | 64 | 1014.5 |
| 20260506212043 | 80 | 174 | 2.6 | 8.7 | 0.00 | 0.00 | 0.00 | 65 | 1014.4 |
| 20260506211553 | 80 | 243 | 2.6 | 8.7 | 0.00 | 0.00 | 0.00 | 63 | 1014.4 |
| 20260506211036 | 81 | 155 | 1.7 | 7.8 | 0.00 | 0.00 | 0.00 | 62 | 1014.4 |
| 20260506210536 | 81 | 146 | 1.7 | 7.0 | 0.00 | 0.00 | 0.00 | 64 | 1014.5 |
| 20260506210051 | 80 | 234 | 1.7 | 8.7 | 0.00 | 0.00 | 0.00 | 64 | 1014.5 |
| 20260506205536 | 80 | 196 | 2.6 | 8.7 | 0.00 | 0.00 | 0.00 | 63 | 1014.4 |
| 20260506205036 | 81 | 163 | 1.7 | 12.2 | 0.00 | 0.00 | 0.00 | 64 | 1014.4 |
| 20260506204552 | 80 | 200 | 2.6 | 12.2 | 0.00 | 0.00 | 0.00 | 64 | 1014.4 |
| 20260506204036 | 80 | 348 | 3.5 | 12.2 | 0.00 | 0.00 | 0.00 | 64 | 1014.3 |
| 20260506203536 | 81 | 168 | 2.6 | 8.7 | 0.00 | 0.00 | 0.00 | 63 | 1014.6 |
| 20260506203053 | 81 | 194 | 3.5 | 7.0 | 0.00 | 0.00 | 0.00 | 64 | 1014.7 |
| 20260506202536 | 81 | 196 | 1.7 | 8.7 | 0.00 | 0.00 | 0.00 | 63 | 1014.7 |
| 20260506202042 | 81 | 227 | 2.6 | 8.7 | 0.00 | 0.00 | 0.00 | 64 | 1014.8 |
| 20260506201547 | 81 | 169 | 2.6 | 6.1 | 0.00 | 0.00 | 0.00 | 64 | 1014.9 |
| 20260506201036 | 81 | 235 | 2.6 | 6.1 | 0.00 | 0.00 | 0.00 | 63 | 1014.9 |
| 20260506200535 | 82 | 186 | 1.7 | 7.8 | 0.00 | 0.00 | 0.00 | 62 | 1014.9 |
| 20260506200046 | 81 | 115 | 2.6 | 7.8 | 0.00 | 0.00 | 0.00 | 62 | 1015.1 |
| 20260506195536 | 82 | 207 | 2.6 | 8.7 | 0.00 | 0.00 | 0.00 | 61 | 1015.0 |
| 20260506195036 | 82 | 171 | 1.7 | 8.7 | 0.00 | 0.00 | 0.00 | 65 | 1015.1 |
| 20260506194546 | 83 | 46 | 0.9 | 4.3 | 0.00 | 0.00 | 0.00 | 64 | 1015.1 |
| 20260506194038 | 82 | 196 | 0.9 | 5.2 | 0.00 | 0.00 | 0.00 | 66 | 1015.2 |
| 20260506193535 | 83 | 213 | 0.9 | 5.2 | 0.00 | 0.00 | 0.00 | 66 | 1015.3 |
| 20260506193054 | 82 | 160 | 1.7 | 6.1 | 0.00 | 0.00 | 0.00 | 64 | 1015.3 |
| 20260506192536 | 82 | 153 | 1.7 | 6.1 | 0.00 | 0.00 | 0.00 | 64 | 1015.3 |
| 20260506192036 | 83 | 172 | 1.7 | 5.2 | 0.00 | 0.00 | 0.00 | 64 | 1015.3 |
| 20260506191559 | 83 | 174 | 1.7 | 7.0 | 0.00 | 0.00 | 0.00 | 63 | 1015.3 |
| 20260506191039 | 83 | 163 | 1.7 | 7.0 | 0.00 | 0.00 | 0.00 | 63 | 1015.3 |
| 20260506190540 | 83 | 141 | 1.7 | 6.1 | 0.00 | 0.00 | 0.00 | 63 | 1015.4 |
| 20260506190050 | 83 | 167 | 1.7 | 4.3 | 0.00 | 0.00 | 0.00 | 64 | 1015.5 |
| 20260506185536 | 83 | 121 | 0.9 | 6.1 | 0.00 | 0.00 | 0.00 | 66 | 1015.6 |
| 20260506185038 | 82 | 136 | 0.9 | 6.1 | 0.00 | 0.00 | 0.00 | 64 | 1015.8 |
| 20260506184555 | 82 | 171 | 1.7 | 6.1 | 0.00 | 0.00 | 0.00 | 66 | 1015.9 |
| 20260506184036 | 83 | 68 | 0.9 | 7.8 | 0.00 | 0.00 | 0.00 | 68 | 1015.9 |
| 20260506183536 | 82 | 206 | 1.7 | 7.8 | 0.00 | 0.00 | 0.00 | 65 | 1016.0 |
| 20260506183101 | 81 | 135 | 1.7 | 6.1 | 0.00 | 0.00 | 0.00 | 66 | 1016.3 |
| 20260506182539 | 82 | 204 | 1.7 | 5.2 | 0.00 | 0.00 | 0.00 | 64 | 1016.3 |
| 20260506182035 | 82 | 153 | 1.7 | 5.2 | 0.00 | 0.00 | 0.00 | 67 | 1016.3 |
| 20260506181604 | 82 | 135 | 0.9 | 5.2 | 0.00 | 0.00 | 0.00 | 65 | 1016.2 |
| 20260506181036 | 82 | 188 | 0.9 | 6.1 | 0.00 | 0.00 | 0.00 | 67 | 1016.2 |
| 20260506180539 | 81 | 84 | 1.7 | 7.0 | 0.00 | 0.00 | 0.00 | 67 | 1016.2 |
| 20260506180054 | 81 | 211 | 0.9 | 7.0 | 0.00 | 0.00 | 0.00 | 69 | 1016.3 |
| 20260506175536 | 82 | 118 | 1.7 | 5.2 | 0.00 | 0.00 | 0.00 | 67 | 1016.3 |
| 20260506175038 | 81 | 0 | 1.7 | 5.2 | 0.00 | 0.00 | 0.00 | 69 | 1016.4 |
| 20260506174548 | 82 | 138 | 1.7 | 7.8 | 0.00 | 0.00 | 0.00 | 68 | 1016.6 |
| 20260506174038 | 81 | 161 | 2.6 | 7.8 | 0.00 | 0.00 | 0.00 | 69 | 1016.5 |
| 20260506173539 | 81 | 0 | 0.9 | 4.3 | 0.00 | 0.00 | 0.00 | 69 | 1016.7 |
| 20260506173114 | 80 | 153 | 0.9 | 4.3 | 0.00 | 0.00 | 0.00 | 70 | 1016.8 |
| 20260506172535 | 80 | 121 | 0.9 | 3.5 | 0.00 | 0.00 | 0.00 | 67 | 1016.7 |
| 20260506172036 | 80 | 208 | 0.9 | 6.1 | 0.00 | 0.00 | 0.00 | 67 | 1016.8 |
| 20260506171545 | 80 | 278 | 1.7 | 6.1 | 0.00 | 0.00 | 0.00 | 66 | 1016.8 |
| 20260506171036 | 81 | 196 | 1.7 | 4.3 | 0.00 | 0.00 | 0.00 | 66 | 1016.9 |
| 20260506170536 | 81 | 317 | 0.9 | 5.2 | 0.00 | 0.00 | 0.00 | 66 | 1016.8 |
| 20260506170105 | 81 | 212 | 1.7 | 7.0 | 0.00 | 0.00 | 0.00 | 66 | 1017.0 |
| 20260506165535 | 81 | 64 | 0.9 | 7.0 | 0.00 | 0.00 | 0.00 | 65 | 1016.8 |
| 20260506165036 | 81 | 243 | 0.9 | 7.8 | 0.00 | 0.00 | 0.00 | 64 | 1017.0 |
| 20260506164546 | 80 | 143 | 1.7 | 7.8 | 0.00 | 0.00 | 0.00 | 69 | 1016.8 |
| 20260506164040 | 81 | 213 | 0.9 | 7.0 | 0.00 | 0.00 | 0.00 | 67 | 1016.9 |
| 20260506163535 | 81 | 182 | 1.7 | 6.1 | 0.00 | 0.00 | 0.00 | 68 | 1017.0 |
| 20260506163056 | 81 | 129 | 1.7 | 5.2 | 0.00 | 0.00 | 0.00 | 66 | 1016.9 |
| 20260506162538 | 81 | 142 | 1.7 | 5.2 | 0.00 | 0.00 | 0.00 | 65 | 1016.8 |
| 20260506162038 | 80 | 171 | 1.7 | 5.2 | 0.00 | 0.00 | 0.00 | 69 | 1017.0 |
| 20260506161549 | 80 | 169 | 1.7 | 6.1 | 0.00 | 0.00 | 0.00 | 66 | 1017.0 |
| 20260506161040 | 79 | 80 | 1.7 | 6.1 | 0.00 | 0.00 | 0.00 | 68 | 1017.1 |
| 20260506160536 | 79 | 204 | 0.9 | 7.8 | 0.00 | 0.00 | 0.00 | 68 | 1017.2 |
| 20260506160053 | 79 | 90 | 0.9 | 8.7 | 0.00 | 0.00 | 0.00 | 68 | 1017.2 |
| 20260506155542 | 79 | 0 | 1.7 | 8.7 | 0.00 | 0.00 | 0.00 | 68 | 1017.2 |
| 20260506155041 | 78 | 234 | 2.6 | 5.2 | 0.00 | 0.00 | 0.00 | 67 | 1017.2 |
| 20260506154608 | 79 | 0 | 0.9 | 4.3 | 0.00 | 0.00 | 0.00 | 68 | 1017.2 |
| 20260506154040 | 79 | 190 | 0.9 | 4.3 | 0.00 | 0.00 | 0.00 | 67 | 1017.2 |
| 20260506153540 | 79 | 0 | 0.9 | 4.3 | 0.00 | 0.00 | 0.00 | 69 | 1017.3 |
| 20260506153046 | 78 | 160 | 1.7 | 4.3 | 0.00 | 0.00 | 0.00 | 66 | 1017.2 |
| 20260506152536 | 79 | 0 | 0.9 | 6.1 | 0.00 | 0.00 | 0.00 | 69 | 1017.2 |
| 20260506152035 | 78 | 171 | 0.9 | 6.1 | 0.00 | 0.00 | 0.00 | 66 | 1017.1 |
| 20260506151547 | 79 | 171 | 1.7 | 4.3 | 0.00 | 0.00 | 0.00 | 65 | 1017.2 |
| 20260506151036 | 79 | 187 | 0.9 | 5.2 | 0.00 | 0.00 | 0.00 | 66 | 1017.1 |
| 20260506150536 | 79 | 201 | 0.9 | 5.2 | 0.00 | 0.00 | 0.00 | 67 | 1017.2 |
| 20260506150050 | 79 | 165 | 1.7 | 5.2 | 0.00 | 0.00 | 0.00 | 64 | 1017.1 |
| 20260506145536 | 79 | 156 | 0.9 | 5.2 | 0.00 | 0.00 | 0.00 | 63 | 1017.1 |
| 20260506145035 | 79 | 175 | 0.9 | 5.2 | 0.00 | 0.00 | 0.00 | 65 | 1017.1 |
| 20260506144556 | 79 | 0 | 0.9 | 6.1 | 0.00 | 0.00 | 0.00 | 64 | 1017.0 |
| 20260506144035 | 79 | 259 | 0.9 | 6.1 | 0.00 | 0.00 | 0.00 | 63 | 1016.8 |
| 20260506143536 | 78 | 220 | 0.9 | 5.2 | 0.00 | 0.00 | 0.00 | 63 | 1016.8 |
| 20260506143053 | 78 | 202 | 1.7 | 5.2 | 0.00 | 0.00 | 0.00 | 61 | 1016.7 |
| 20260506142540 | 78 | 136 | 0.9 | 7.8 | 0.00 | 0.00 | 0.00 | 60 | 1016.7 |
| 20260506142039 | 78 | 227 | 0.9 | 7.8 | 0.00 | 0.00 | 0.00 | 64 | 1016.7 |
| 20260506141548 | 77 | 217 | 1.7 | 6.1 | 0.00 | 0.00 | 0.00 | 63 | 1016.8 |
| 20260506141038 | 77 | 167 | 1.7 | 5.2 | 0.00 | 0.00 | 0.00 | 65 | 1017.0 |
| 20260506140540 | 77 | 257 | 1.7 | 6.1 | 0.00 | 0.00 | 0.00 | 65 | 1016.9 |
| 20260506140047 | 77 | 266 | 0.9 | 6.1 | 0.00 | 0.00 | 0.00 | 63 | 1016.8 |
| 20260506135538 | 77 | 217 | 0.9 | 6.1 | 0.00 | 0.00 | 0.00 | 64 | 1016.8 |
| 20260506135036 | 77 | 0 | 0.9 | 7.8 | 0.00 | 0.00 | 0.00 | 66 | 1016.8 |
| 20260506134551 | 76 | 188 | 1.7 | 7.8 | 0.00 | 0.00 | 0.00 | 67 | 1016.6 |
| 20260506134036 | 76 | 265 | 0.9 | 5.2 | 0.00 | 0.00 | 0.00 | 67 | 1016.6 |
| 20260506133535 | 76 | 233 | 0.9 | 5.2 | 0.00 | 0.00 | 0.00 | 68 | 1016.7 |
| 20260506133102 | 75 | 186 | 1.7 | 6.1 | 0.00 | 0.00 | 0.00 | 68 | 1016.6 |
| 20260506132539 | 75 | 105 | 0.9 | 6.1 | 0.00 | 0.00 | 0.00 | 68 | 1016.6 |
| 20260506132037 | 75 | 182 | 0.9 | 5.2 | 0.00 | 0.00 | 0.00 | 70 | 1016.6 |
| 20260506131548 | 75 | 227 | 0.9 | 3.5 | 0.00 | 0.00 | 0.00 | 70 | 1016.7 |
| 20260506131037 | 74 | 133 | 0.9 | 8.7 | 0.00 | 0.00 | 0.00 | 73 | 1016.5 |
| 20260506130539 | 73 | 151 | 0.9 | 8.7 | 0.00 | 0.00 | 0.00 | 73 | 1016.5 |
| 20260506130119 | 73 | 184 | 1.7 | 5.2 | 0.00 | 0.00 | 0.00 | 74 | 1016.5 |
| 20260506125538 | 72 | 176 | 1.7 | 4.3 | 0.00 | 0.00 | 0.00 | 75 | 1016.4 |
| 20260506125038 | 72 | 198 | 0.9 | 4.3 | 0.00 | 0.00 | 0.00 | 76 | 1016.3 |
| 20260506124546 | 72 | 180 | 0.9 | 7.0 | 0.00 | 0.00 | 0.00 | 77 | 1016.3 |
| 20260506124036 | 71 | 215 | 1.7 | 7.0 | 0.00 | 0.00 | 0.00 | 77 | 1016.4 |
| 20260506123536 | 71 | 223 | 0.9 | 5.2 | 0.00 | 0.00 | 0.00 | 78 | 1016.3 |
| 20260506123050 | 71 | 163 | 0.9 | 4.3 | 0.00 | 0.00 | 0.00 | 79 | 1016.2 |
| 20260506122536 | 70 | 139 | 0.0 | 4.3 | 0.00 | 0.00 | 0.00 | 80 | 1016.3 |
| 20260506122036 | 70 | 0 | 0.9 | 4.3 | 0.00 | 0.00 | 0.00 | 81 | 1016.4 |
| 20260506121550 | 70 | 0 | 0.0 | 2.6 | 0.00 | 0.00 | 0.00 | 81 | 1016.5 |
| 20260506121036 | 69 | 202 | 0.0 | 2.6 | 0.00 | 0.00 | 0.00 | 82 | 1016.4 |
| 20260506120536 | 68 | 198 | 0.9 | 2.6 | 0.00 | 0.00 | 0.00 | 84 | 1016.5 |
| 20260506120052 | 68 | 0 | 0.0 | 1.7 | 0.00 | 0.00 | 0.00 | 86 | 1016.4 |
| 20260506115536 | 67 | 0 | 0.0 | 1.7 | 0.00 | 0.00 | 0.00 | 87 | 1016.4 |
| 20260506115040 | 66 | 0 | 0.0 | 0.0 | 0.00 | 0.00 | 0.00 | 87 | 1016.4 |
| 20260506114549 | 65 | 0 | 0.0 | 0.0 | 0.00 | 0.00 | 0.00 | 88 | 1016.2 |
| 20260506114039 | 64 | 0 | 0.0 | 0.0 | 0.00 | 0.00 | 0.00 | 89 | 1016.1 |
| 20260506113536 | 63 | 0 | 0.0 | 0.0 | 0.00 | 0.00 | 0.00 | 89 | 1016.1 |
| 20260506113046 | 62 | 0 | 0.0 | 0.0 | 0.00 | 0.00 | 0.00 | 89 | 1016.2 |
| 20260506112537 | 62 | 0 | 0.0 | 0.0 | 0.00 | 0.00 | 0.00 | 89 | 1016.0 |
| 20260506112038 | 61 | 0 | 0.0 | 0.0 | 0.00 | 0.00 | 0.00 | 90 | 1015.9 |
| 20260506111546 | 61 | 0 | 0.0 | 0.0 | 0.00 | 0.00 | 0.00 | 90 | 1015.9 |
| 20260506111036 | 60 | 0 | 0.0 | 0.0 | 0.00 | 0.00 | 0.00 | 90 | 1016.0 |
| 20260506110536 | 60 | 0 | 0.0 | 0.0 | 0.00 | 0.00 | 0.00 | 90 | 1016.1 |
| 20260506110050 | 60 | 0 | 0.0 | 0.0 | 0.00 | 0.00 | 0.00 | 90 | 1016.0 |
| 20260506105536 | 60 | 0 | 0.0 | 0.0 | 0.00 | 0.00 | 0.00 | 90 | 1016.0 |
| 20260506105040 | 60 | 0 | 0.0 | 0.0 | 0.00 | 0.00 | 0.00 | 90 | 1016.0 |
| 20260506104610 | 60 | 0 | 0.0 | 0.0 | 0.00 | 0.00 | 0.00 | 90 | 1016.1 |
| 20260506104035 | 59 | 0 | 0.0 | 0.0 | 0.00 | 0.00 | 0.00 | 89 | 1016.0 |
| 20260506103540 | 59 | 0 | 0.0 | 0.0 | 0.00 | 0.00 | 0.00 | 89 | 1015.8 |
| 20260506103046 | 59 | 0 | 0.0 | 0.0 | 0.00 | 0.00 | 0.00 | 90 | 1015.8 |
| 20260506102537 | 60 | 0 | 0.0 | 0.0 | 0.00 | 0.00 | 0.00 | 90 | 1015.7 |
| 20260506102039 | 59 | 0 | 0.0 | 0.0 | 0.00 | 0.00 | 0.00 | 90 | 1015.9 |
| 20260506101549 | 59 | 0 | 0.0 | 0.0 | 0.00 | 0.00 | 0.00 | 89 | 1015.8 |
| 20260506101036 | 60 | 0 | 0.0 | 0.0 | 0.00 | 0.00 | 0.00 | 89 | 1015.7 |
| 20260506100538 | 59 | 0 | 0.0 | 0.0 | 0.00 | 0.00 | 0.00 | 89 | 1015.9 |
| 20260506100050 | 59 | 0 | 0.0 | 0.0 | 0.00 | 0.00 | 0.00 | 89 | 1015.8 |
| 20260506095536 | 60 | 0 | 0.0 | 0.0 | 0.00 | 0.00 | 0.00 | 89 | 1015.7 |
| 20260506095035 | 60 | 0 | 0.0 | 0.0 | 0.00 | 0.00 | 0.00 | 89 | 1015.7 |
| 20260506094549 | 60 | 0 | 0.0 | 0.0 | 0.00 | 0.00 | 0.00 | 89 | 1015.7 |
| 20260506094035 | 60 | 0 | 0.0 | 0.0 | 0.00 | 0.00 | 0.00 | 89 | 1015.8 |
| 20260506093537 | 60 | 0 | 0.0 | 0.0 | 0.00 | 0.00 | 0.00 | 89 | 1015.7 |
| 20260506093051 | 60 | 0 | 0.0 | 0.0 | 0.00 | 0.00 | 0.00 | 89 | 1015.9 |
| 20260506092536 | 60 | 0 | 0.0 | 0.0 | 0.00 | 0.00 | 0.00 | 89 | 1015.8 |
| 20260506092036 | 60 | 0 | 0.0 | 0.0 | 0.00 | 0.00 | 0.00 | 89 | 1015.9 |
| 20260506091548 | 60 | 0 | 0.0 | 0.0 | 0.00 | 0.00 | 0.00 | 89 | 1015.8 |
| 20260506091038 | 60 | 0 | 0.0 | 0.0 | 0.00 | 0.00 | 0.00 | 89 | 1015.9 |
| 20260506090539 | 60 | 0 | 0.0 | 0.0 | 0.00 | 0.00 | 0.00 | 89 | 1015.9 |
| 20260506090048 | 60 | 0 | 0.0 | 0.0 | 0.00 | 0.00 | 0.00 | 89 | 1016.0 |
| 20260506085538 | 60 | 0 | 0.0 | 0.0 | 0.00 | 0.00 | 0.00 | 89 | 1015.9 |
| 20260506085036 | 60 | 0 | 0.0 | 0.0 | 0.00 | 0.00 | 0.00 | 89 | 1015.9 |
| 20260506084547 | 60 | 0 | 0.0 | 0.0 | 0.00 | 0.00 | 0.00 | 89 | 1016.0 |
| 20260506084035 | 60 | 0 | 0.0 | 0.0 | 0.00 | 0.00 | 0.00 | 88 | 1016.1 |
| 20260506083539 | 60 | 0 | 0.0 | 0.0 | 0.00 | 0.00 | 0.00 | 88 | 1016.2 |
| 20260506083050 | 60 | 0 | 0.0 | 0.0 | 0.00 | 0.00 | 0.00 | 88 | 1016.0 |
| 20260506082536 | 60 | 0 | 0.0 | 0.0 | 0.00 | 0.00 | 0.00 | 88 | 1016.1 |
| 20260506082036 | 60 | 0 | 0.0 | 0.0 | 0.00 | 0.00 | 0.00 | 88 | 1016.0 |
| 20260506081545 | 60 | 0 | 0.0 | 0.0 | 0.00 | 0.00 | 0.00 | 88 | 1016.1 |
| 20260506081039 | 60 | 0 | 0.0 | 0.0 | 0.00 | 0.00 | 0.00 | 88 | 1016.0 |
| 20260506080538 | 60 | 0 | 0.0 | 0.0 | 0.00 | 0.00 | 0.00 | 88 | 1015.9 |
| 20260506073051 | 60 | 0 | 0.0 | 0.0 | 0.00 | 0.00 | 0.00 | 88 | 1015.6 |
| 20260506072536 | 60 | 0 | 0.0 | 0.0 | 0.00 | 0.00 | 0.00 | 88 | 1015.6 |
| 20260506072040 | 60 | 0 | 0.0 | 0.0 | 0.00 | 0.00 | 0.00 | 88 | 1015.6 |
| 20260506071554 | 60 | 0 | 0.0 | 0.0 | 0.00 | 0.00 | 0.00 | 88 | 1015.5 |
| 20260506071036 | 60 | 0 | 0.0 | 0.0 | 0.00 | 0.00 | 0.00 | 88 | 1015.5 |
| 20260506070537 | 60 | 0 | 0.0 | 0.0 | 0.00 | 0.00 | 0.00 | 88 | 1015.5 |
| 20260506062036 | 60 | 0 | 0.0 | 0.0 | 0.00 | 0.00 | 0.00 | 87 | 1016.0 |
| 20260506061551 | 60 | 0 | 0.0 | 0.0 | 0.00 | 0.00 | 0.00 | 87 | 1015.8 |
| 20260506061039 | 60 | 0 | 0.0 | 0.0 | 0.00 | 0.00 | 0.00 | 87 | 1015.9 |
| 20260506060541 | 60 | 0 | 0.0 | 0.0 | 0.00 | 0.00 | 0.00 | 87 | 1015.9 |
| 20260506051036 | 60 | 0 | 0.0 | 0.0 | 0.00 | 0.00 | 0.00 | 85 | 1016.5 |
| 20260506050539 | 60 | 0 | 0.0 | 0.0 | 0.00 | 0.00 | 0.00 | 85 | 1016.5 |
| 20260506045036 | 61 | 0 | 0.0 | 0.0 | 0.00 | 0.00 | 0.00 | 84 | 1016.5 |
| 20260506044600 | 61 | 0 | 0.0 | 0.0 | 0.00 | 0.00 | 0.00 | 84 | 1016.6 |
| 20260506044036 | 61 | 0 | 0.0 | 0.0 | 0.00 | 0.00 | 0.00 | 84 | 1016.7 |
| 20260506043536 | 61 | 0 | 0.0 | 0.0 | 0.00 | 0.00 | 0.00 | 84 | 1016.8 |
| 20260506043053 | 61 | 0 | 0.0 | 0.0 | 0.00 | 0.00 | 0.00 | 83 | 1016.8 |
| 20260506042536 | 62 | 0 | 0.0 | 0.0 | 0.00 | 0.00 | 0.00 | 83 | 1016.7 |
| 20260506042037 | 62 | 0 | 0.0 | 0.0 | 0.00 | 0.00 | 0.00 | 82 | 1016.9 |
| 20260506041545 | 62 | 0 | 0.0 | 0.0 | 0.00 | 0.00 | 0.00 | 82 | 1016.8 |
| 20260506041035 | 62 | 0 | 0.0 | 0.0 | 0.00 | 0.00 | 0.00 | 82 | 1016.8 |
| 20260506040539 | 63 | 0 | 0.0 | 0.0 | 0.00 | 0.00 | 0.00 | 81 | 1016.6 |
| 20260506040050 | 63 | 0 | 0.0 | 0.0 | 0.00 | 0.00 | 0.00 | 81 | 1016.9 |
| 20260506035536 | 63 | 0 | 0.0 | 0.0 | 0.00 | 0.00 | 0.00 | 80 | 1016.8 |
| 20260506035036 | 63 | 0 | 0.0 | 0.0 | 0.00 | 0.00 | 0.00 | 79 | 1016.8 |
| 20260506034547 | 64 | 0 | 0.0 | 0.0 | 0.00 | 0.00 | 0.00 | 78 | 1016.8 |
| 20260506034037 | 64 | 0 | 0.0 | 0.0 | 0.00 | 0.00 | 0.00 | 77 | 1016.7 |
| 20260506033536 | 65 | 0 | 0.0 | 1.7 | 0.00 | 0.00 | 0.00 | 77 | 1016.7 |
| 20260506033047 | 65 | 0 | 0.0 | 1.7 | 0.00 | 0.00 | 0.00 | 77 | 1016.7 |
| 20260506032536 | 64 | 136 | 0.0 | 0.0 | 0.00 | 0.00 | 0.00 | 77 | 1016.7 |
| 20260506032037 | 64 | 0 | 0.0 | 0.9 | 0.00 | 0.00 | 0.00 | 76 | 1016.7 |
| 20260506031552 | 65 | 0 | 0.0 | 0.9 | 0.00 | 0.00 | 0.00 | 76 | 1016.8 |
| 20260506031038 | 65 | 0 | 0.0 | 0.9 | 0.00 | 0.00 | 0.00 | 75 | 1016.7 |
| 20260506030537 | 65 | 0 | 0.0 | 0.9 | 0.00 | 0.00 | 0.00 | 75 | 1016.7 |
| 20260506030048 | 65 | 0 | 0.0 | 0.0 | 0.00 | 0.00 | 0.00 | 74 | 1016.8 |
| 20260506025535 | 65 | 0 | 0.0 | 0.9 | 0.00 | 0.00 | 0.00 | 74 | 1016.9 |
| 20260506025036 | 65 | 0 | 0.0 | 1.7 | 0.00 | 0.00 | 0.00 | 74 | 1016.9 |
| 20260506024555 | 65 | 0 | 0.0 | 1.7 | 0.00 | 0.00 | 0.00 | 74 | 1017.0 |
| 20260506024036 | 65 | 0 | 0.0 | 1.7 | 0.00 | 0.00 | 0.00 | 74 | 1017.0 |
| 20260506023537 | 65 | 0 | 0.0 | 0.0 | 0.00 | 0.00 | 0.00 | 74 | 1017.1 |